Volver al catálogo

DMSP 5D-2 F12 DEB

ActivoSSO
NORAD 41835·DEBRIS·🇺🇸 United States

Lanzado Aug 29, 1994 desde Vandenberg Space Force Base

Loading…

Próximos Pases (próximas 24 horas)

TLE

ActualizadoSource: Space-Track

Época: Sep 14, 2026, 17:43 UTC

1 41835U 94057F   26257.73838410  .00002459  00000-0  98085-3 0  9995
2 41835  98.9369  13.7617 0018272 342.3733  17.6812 14.29397190512870

Sigue DMSP 5D-2 F12 DEB en tiempo real con AllMySat

Download on the App Store